STARLINK-1541, 46052

Orbit data source: Space-Track

STARLINK-1541, 46052 is a payload satellite owned by SpaceX/Seattle (US) in LEO that was launched on Fri, 07 Aug 2020 UTC via an FALCON 9 launch vehicle from the Air Force Eastern Test Range (AFETR). Payload-class satellites include a variety of spacecraft equipped with specific instruments for various scientific and technological missions. These include communications satellites like Starlink; space stations such as the ISS; scientific satellites like the Hubble; Earth observation satellites from companies like Planet Labs, Umbra, and HawkEye 360; GPS; miniature CubeSats for education and research; and military/defense satellites.

Loading next visibility...
Identifier
46052, 2020-055AB
Orbit
LEO
Country
Flag of USUS
Related business
Manufacturer
SpaceX/Seattle
Mission
Operational Commercial Communications
Bus & Motor
STARLINK, Unknown motor
Mass
260 kg wet, ~248 kg dry
Launch date (UTC)
2020-08-07 (5 years ago)
Launch vehicle
FALCON 9
Launch site
Air Force Eastern Test Range (AFETR)
Object type
Payload
Rocket body
Debris
Shape & HBR
Box + 1 Pan, 4.4 m
Radar Cross Section
13.562 m², Large (>1 m²)

Expand to show TLE details & history
Last TLE update: 15 hours ago

TLE from 15 hours ago
0 STARLINK-1541
1 46052U 20055AB  25258.19803228 -.00000466  00000-0 -12371-4 0  9990
2 46052  53.0536 184.4303 0001625 106.0904 254.0264 15.06395505282552
Epoch: 2025-09-15T04:45Z
TLE epoch observation values (Epoch: 2025-09-15T04:45:09.988Z)
Latitude
-0.00005°
Longitude
118.73252°
Altitude
548.414 km
Speed
7.589 km/s
True Right ascension
12h 17m 43s
True Declination
0° 00' 00"
Sunlit
Object was in daylight at epoch
Visualization orbit readout
Latitude
Unknown
Longitude
Unknown
Altitude
Unknown
Speed
Unknown
Apparent Right ascension
Unknown
Apparent Declination
Unknown
Sunlit
N/A
Visualization observer readout
Local Sidereal Time
12:20:35
Azimuth
Unknown
Elevation
Unknown
Doppler factor
Unknown
Orbital elements
Apogee altitude
548.622 km
Perigee altitude
546.371 km
Semi-major axis
6,925.633 km
Eccentricity
0.00016
Inclination
53.0536°
RAAN
184.4303°
Arg. of periapsis
106.0904°
True anomaly
254.0085°
Mean anomaly
254.0264°
Eccentric anomaly
254.01745°
Mean motion
3.76577 °/min
Orbital period
95.6 mins
BSTAR
-0.000012371
Loading maneuver chart data...
Computing Atmospheric mass density...
Loading historical data...
Loading historical data...
Loading historical data...
Loading historical data...
Loading historical data...
Loading historical data...
Loading historical data...

Documentation

Showing up to 5 results
|